KI5IZM-13 Weather Reports


Display with metric or nautical units.
time (UTC)temp
F
wind
direction
speed
MPH
gust
MPH
rain 1hr
in
rain 24hr
in
rain mn
in
humidity
%
barometer
mb
20260831080029 80 161 0.0 1.0 0.00 0.00 0.00 67 1016.6
20260831074540 80 179 0.0 3.0 0.00 0.00 0.00 67 1016.5
20260831073047 80 140 0.0 4.0 0.00 0.00 0.00 66 1016.4
20260831071524 80 121 0.0 3.0 0.00 0.00 0.00 65 1016.5
20260831070032 81 161 0.0 5.0 0.00 0.00 0.00 65 1016.5
20260831064538 81 146 0.0 2.0 0.00 0.00 0.00 64 1016.6
20260831063030 82 167 0.0 3.0 0.00 0.00 0.00 63 1016.6
20260831061532 82 142 0.0 5.0 0.00 0.00 0.00 62 1016.5
20260831060025 82 174 1.0 5.0 0.00 0.00 0.00 62 1016.4
20260831054534 81 144 1.0 7.0 0.00 0.00 0.00 63 1016.2
20260831053019 79 261 0.0 1.0 0.00 0.00 0.00 67 1016.1
20260831051516 79 261 0.0 0.0 0.00 0.00 0.00 68 1016.1
20260831050037 79 261 0.0 0.0 0.00 0.00 0.00 68 1015.8
20260831044504 79 261 0.0 0.0 0.00 0.00 0.00 69 1015.9
20260831043009 79 261 0.0 0.0 0.00 0.00 0.00 69 1015.8
20260831041511 79 261 0.0 0.0 0.00 0.00 0.00 70 1015.8
20260831040039 79 261 0.0 0.0 0.00 0.00 0.00 71 1015.5
20260831034532 79 261 0.0 0.0 0.00 0.00 0.00 71 1015.5
20260831033030 80 261 0.0 0.0 0.00 0.00 0.00 69 1015.1
20260831031507 80 261 0.0 0.0 0.00 0.00 0.00 68 1015.0
20260831030029 81 261 0.0 0.0 0.00 0.00 0.00 66 1014.8
20260831024518 82 261 0.0 0.0 0.00 0.00 0.00 64 1014.7
20260831023026 83 261 0.0 0.0 0.00 0.00 0.00 63 1014.5
20260831021531 84 261 0.0 0.0 0.00 0.00 0.00 61 1014.3
20260831020012 85 261 0.0 0.0 0.00 0.00 0.00 58 1014.1
20260831014515 86 261 0.0 0.0 0.00 0.00 0.00 54 1013.9
20260831013027 88 261 0.0 0.0 0.00 0.00 0.00 52 1013.9
20260831011535 89 261 0.0 1.0 0.00 0.00 0.00 51 1013.9
20260831010031 90 135 0.0 0.0 0.00 0.00 0.00 48 1013.8
20260831004518 92 137 0.0 0.0 0.00 0.00 0.00 45 1013.7
20260831003024 94 144 0.0 0.0 0.00 0.00 0.00 42 1013.7
20260831001533 96 144 0.0 0.0 0.00 0.00 0.00 39 1013.7
20260831000028 98 149 0.0 2.0 0.00 0.00 0.00 37 1013.7
20260830234531 99 309 0.0 2.0 0.00 0.00 0.00 35 1013.7
20260830233009 99 74 0.0 6.0 0.00 0.00 0.00 35 1013.9
20260830231503 99 139 0.0 6.0 0.00 0.00 0.00 35 1013.9
20260830230004 99 126 1.0 7.0 0.00 0.00 0.00 36 1013.9
20260830224507 100 157 2.0 9.0 0.00 0.00 0.00 35 1013.8
20260830223014 99 236 0.0 7.0 0.00 0.00 0.00 36 1013.9
20260830221503 99 199 1.0 10.0 0.00 0.00 0.00 34 1014.0
20260830220011 100 275 1.0 8.0 0.00 0.00 0.00 34 1014.0
20260830214508 100 277 1.0 5.0 0.00 0.00 0.00 35 1014.2
20260830213018 99 196 0.0 14.0 0.00 0.00 0.00 37 1014.2
20260830211515 99 163 2.0 10.0 0.00 0.00 0.00 37 1014.4
20260830210010 99 129 1.0 8.0 0.00 0.00 0.00 37 1014.7
20260830204509 99 200 1.0 8.0 0.00 0.00 0.00 38 1014.9
20260830203008 98 248 0.0 5.0 0.00 0.00 0.00 39 1015.2
20260830201511 98 206 2.0 7.0 0.00 0.00 0.00 39 1015.5
20260830200031 98 279 2.0 7.0 0.00 0.00 0.00 38 1015.7
20260830194503 98 132 2.0 5.0 0.00 0.00 0.00 39 1016.0
20260830193007 98 225 1.0 9.0 0.00 0.00 0.00 41 1016.1
20260830191542 97 114 4.0 10.0 0.00 0.00 0.00 42 1016.5
20260830190018 97 232 1.0 8.0 0.00 0.00 0.00 42 1016.7
20260830184526 96 80 1.0 10.0 0.00 0.00 0.00 44 1016.7
20260830183005 96 141 5.0 11.0 0.00 0.00 0.00 44 1017.0
20260830181523 96 261 1.0 8.0 0.00 0.00 0.00 47 1017.1
20260830180015 95 142 4.0 12.0 0.00 0.00 0.00 46 1017.3
20260830174515 94 226 0.0 9.0 0.00 0.00 0.00 48 1017.4
20260830173024 93 228 2.0 10.0 0.00 0.00 0.00 49 1017.6
20260830171527 93 333 2.0 8.0 0.00 0.00 0.00 51 1017.7
20260830170008 92 235 4.0 12.0 0.00 0.00 0.00 54 1017.9
20260830164514 91 268 2.0 8.0 0.00 0.00 0.00 54 1018.2
20260830163034 91 171 4.0 9.0 0.00 0.00 0.00 55 1018.3
20260830161526 89 262 1.0 10.0 0.00 0.00 0.00 59 1018.3
20260830160038 89 155 1.0 8.0 0.00 0.00 0.00 59 1018.4
20260830154520 88 163 1.0 8.0 0.00 0.00 0.00 63 1018.4
20260830153014 87 122 3.0 10.0 0.00 0.00 0.00 63 1018.4
20260830151523 87 236 1.0 6.0 0.00 0.00 0.00 65 1018.2
20260830150028 86 253 1.0 8.0 0.00 0.00 0.00 69 1018.3
20260830144530 84 149 1.0 5.0 0.00 0.00 0.00 73 1018.1
20260830143004 83 168 1.0 6.0 0.00 0.00 0.00 76 1018.2
20260830141504 82 184 1.0 7.0 0.00 0.00 0.00 79 1018.3
20260830140003 81 275 2.0 7.0 0.00 0.00 0.00 81 1018.3
20260830134503 79 59 0.0 4.0 0.00 0.00 0.00 85 1018.1
20260830133004 78 209 0.0 3.0 0.00 0.00 0.00 87 1018.1
20260830131505 75 184 0.0 2.0 0.00 0.00 0.00 89 1018.1
20260830130003 74 173 0.0 0.0 0.00 0.00 0.00 87 1018.0
20260830124504 73 76 0.0 1.0 0.00 0.00 0.00 87 1017.9
20260830123004 73 169 0.0 0.0 0.00 0.00 0.00 87 1017.5
20260830121507 73 169 0.0 0.0 0.00 0.00 0.00 86 1017.4
20260830120005 73 169 0.0 0.0 0.00 0.00 0.00 85 1017.1
20260830114504 73 166 0.0 0.0 0.00 0.00 0.00 85 1017.1
20260830113003 74 166 0.0 0.0 0.00 0.00 0.00 84 1016.9
20260830111504 74 166 0.0 0.0 0.00 0.00 0.00 84 1017.0
20260830110005 74 166 0.0 0.0 0.00 0.00 0.00 83 1016.9
20260830104506 74 166 0.0 0.0 0.00 0.00 0.00 81 1016.8
20260830103007 75 166 0.0 0.0 0.00 0.00 0.00 80 1016.7
20260830101505 75 166 0.0 0.0 0.00 0.00 0.00 79 1016.5
20260830100006 75 166 0.0 0.0 0.00 0.00 0.00 78 1016.4
20260830094508 75 127 0.0 0.0 0.00 0.00 0.00 77 1016.6
20260830093015 75 127 0.0 0.0 0.00 0.00 0.00 77 1016.6
20260830091515 75 127 0.0 0.0 0.00 0.00 0.00 76 1016.4
20260830090008 75 127 0.0 0.0 0.00 0.00 0.00 75 1016.5
20260830084511 75 127 0.0 0.0 0.00 0.00 0.00 73 1016.4
20260830083010 76 127 0.0 0.0 0.00 0.00 0.00 72 1016.4
20260830081528 76 127 0.0 0.0 0.00 0.00 0.00 70 1016.4